Medicine Lodge, KS

2:49 PM CST on December 05, 2019 (GMT -0600)
Medicine Lodge

Weather History for KP28 - October, 2019

Change the Weather History Date:

Friday, October 4, 2019

  Actual Average Record
Temperature  
Mean Temperature 58 °F 64 °F  
Max Temperature 63 °F 76 °F 99 °F (1954)
Min Temperature 53 °F 51 °F 32 °F (1902)
Degree Days  
Heating Degree Days 7 4  
Month to date heating degree days 17 16  
Since 1 July heating degree days 17 50  
Cooling Degree Days 0 3  
Month to date cooling degree days 20 12  
Year to date cooling degree days 1834 1743  
Growing Degree Days 8 (Base 50)    
Moisture  
Dew Point 55 °F    
Average Humidity 89    
Maximum Humidity 100    
Minimum Humidity 77    
Precipitation  
Precipitation 0.06 in 0.09 in 1.06 in (1998)
Month to date precipitation 1.58 0.35  
Year to date precipitation 30.16 22.80  
Snow  
Snow 0.00 in 0.00 in - ()
Month to date snowfall 0.0 0.0  
Since 1 July snowfall 0.0 0.0  
Since 1 September snowfall 0.0 0.0  
Snow Depth 0.00 in    
Sea Level Pressure  
Sea Level Pressure 30.17 in    
Wind  
Wind Speed 6 mph (East)    
Max Wind Speed 13 mph    
Max Gust Speed 18 mph    
T = Trace of Precipitation, MM = Missing Value Source: NWS Daily Summary

Daily Weather History Graph

Daily Weather History Graph

Search for Another Location

Airport or City:

Astronomy

Oct. 04, 2019 Rise Set
Actual Time 7:32 AM CDT 7:13 PM CDT
Civil Twilight 7:06 AM CDT 7:39 PM CDT
Nautical Twilight 6:35 AM CDT 8:09 PM CDT
Astronomical Twilight 6:05 AM CDT 8:39 PM CDT
Moon 1:58 PM CDT (10/4) 11:50 PM CDT (10/4)
Length of Visible Light 12h 33m
Length of Day
11h 41m
Waxing Crescent, 40% of the Moon is Illuminated
Oct 4
Waxing Crescent
Oct 5
First Quarter
Oct 13
Full
Oct 21
Last Quarter
Oct 27
New

Hourly Weather History & Observations

Time (CDT) Temp. Dew Point Humidity Pressure Visibility Wind Dir Wind Speed Gust Speed Precip Events Conditions
12:56 AM 57.0 °F 51.1 °F 81% 30.27 in - East 5.8 mph - N/A   Unknown
1:56 AM 55.9 °F 50.0 °F 80% 30.26 in - NNE 4.6 mph - N/A   Unknown
2:56 AM 55.9 °F 50.0 °F 80% 30.26 in - ENE 3.5 mph - N/A   Unknown
3:56 AM 55.9 °F 48.9 °F 77% 30.24 in - NE 5.8 mph - N/A   Unknown
4:56 AM 55.0 °F 50.0 °F 83% 30.25 in - ENE 6.9 mph - N/A   Unknown
5:56 AM 53.1 °F 51.1 °F 93% 30.25 in - ENE 6.9 mph - 0.03 in   Unknown
6:56 AM 53.1 °F 52.0 °F 96% 30.25 in - ENE 6.9 mph - 0.01 in   Unknown
7:56 AM 54.0 °F 52.0 °F 93% 30.26 in - ENE 3.5 mph - N/A   Unknown
8:56 AM 54.0 °F 52.0 °F 93% 30.26 in - ENE 5.8 mph - N/A   Unknown
9:56 AM 55.0 °F 53.1 °F 93% 30.24 in - East 9.2 mph - 0.02 in   Unknown
10:56 AM 55.0 °F 53.1 °F 93% 30.23 in - East 9.2 mph - N/A   Unknown
11:56 AM 55.9 °F 53.1 °F 90% 30.22 in - ESE 4.6 mph - N/A   Unknown
12:56 PM 57.9 °F 54.0 °F 87% 30.19 in - East 8.1 mph - N/A   Unknown
1:56 PM 57.9 °F 55.0 °F 90% 30.17 in - East 8.1 mph - N/A   Unknown
2:56 PM 59.0 °F 55.9 °F 90% 30.14 in - SE 6.9 mph - N/A   Unknown
3:56 PM 61.0 °F 57.0 °F 87% 30.12 in - ESE 6.9 mph - N/A   Unknown
4:56 PM 62.1 °F 57.9 °F 86% 30.10 in - ESE 8.1 mph - N/A   Unknown
5:56 PM 63.0 °F 60.1 °F 90% 30.09 in - SSE 9.2 mph - N/A   Unknown
6:56 PM 63.0 °F 60.1 °F 90% 30.09 in - SSE 8.1 mph - N/A   Unknown
7:56 PM 63.0 °F 61.0 °F 93% 30.08 in - SSE 6.9 mph - N/A   Unknown
8:56 PM 62.1 °F 61.0 °F 96% 30.06 in - SSE 3.5 mph - N/A   Unknown
9:56 PM 62.1 °F 61.0 °F 96% 30.04 in - SE 4.6 mph - N/A   Unknown
10:56 PM 61.0 °F 61.0 °F 100% 30.02 in - SE 3.5 mph - N/A   Unknown
11:56 PM 62.1 °F 61.0 °F 96% 29.99 in - SE 8.1 mph - N/A   Unknown